Location: Gokavaram
(16.9752°N, 81.0696°E)
Time: 07:14:40
(UTC+00:00)

SEDSat Delta rocket - Pass Details

Date: 15 May 2026
Orbit: 529 x 962 km, 31.4° (Epoch: 5 June)

Event Time Altitude Azimuth Distance (km) Brightness Sun altitude
Rises 14:42:38 0° 245° (WSW) 3,547 7.4 -23.1°
Reaches altitude 10° 14:45:13 10° 247° (WSW) 2,639 6.7 -23.7°
Maximum altitude 14:51:42 77° 332° (NNW) 984 4.0 -25.0°
Enters shadow 14:55:13 29° 54° (NE) 1,658 5.0 -25.7°
